contact:dominique.lefevre@mio.osupytheas.fr, maurice.libes@osupytheas.fr, didier.mallarino@osupytheas.fr
Project:EMSO http://www.emso-fr.org/EMSO-France
Depth: 2436.0 m
Title:EMSO Ligure Ouest : Data MII capteur MICROCAT
DateTime_Computer,Latitude,Longitude,Temperature,Conductivity,Pressure,DateTime_Instrument
DateTime_Computer,Latitude,Longitude,degC,S m-1,dbar,DateTime_Instrument
2022-03-28T00:01:28Z,42.805,6.029,13.2998,4.60031,2470.334,2022-3-28T02:03:05Z
2022-03-28T00:04:31Z,42.805,6.029,13.3000,4.60031,2470.297,2022-3-28T02:06:08Z
2022-03-28T00:07:34Z,42.805,6.029,13.2997,4.60031,2470.32,2022-3-28T02:09:11Z
2022-03-28T00:10:38Z,42.805,6.029,13.2997,4.60031,2470.32,2022-3-28T02:12:14Z
2022-03-28T00:13:41Z,42.805,6.029,13.2999,4.60031,2470.31,2022-3-28T02:15:18Z
2022-03-28T00:16:44Z,42.805,6.029,13.2999,4.60031,2470.32,2022-3-28T02:18:21Z
2022-03-28T00:19:47Z,42.805,6.029,13.3001,4.60033,2470.297,2022-3-28T02:21:24Z
2022-03-28T00:22:50Z,42.805,6.029,13.2998,4.60031,2470.334,2022-3-28T02:24:27Z
2022-03-28T00:25:53Z,42.805,6.029,13.2997,4.60031,2470.357,2022-3-28T02:27:30Z
2022-03-28T00:28:56Z,42.805,6.029,13.2998,4.60031,2470.343,2022-3-28T02:30:33Z
2022-03-28T00:31:59Z,42.805,6.029,13.2999,4.60030,2470.32,2022-3-28T02:33:36Z
2022-03-28T00:35:03Z,42.805,6.029,13.3001,4.60031,2470.273,2022-3-28T02:36:40Z
2022-03-28T00:38:06Z,42.805,6.029,13.2999,4.60031,2470.343,2022-3-28T02:39:43Z
2022-03-28T00:41:09Z,42.805,6.029,13.3001,4.60031,2470.334,2022-3-28T02:42:46Z
2022-03-28T00:44:12Z,42.805,6.029,13.2999,4.60031,2470.366,2022-3-28T02:45:49Z
2022-03-28T00:47:15Z,42.805,6.029,13.2999,4.60031,2470.32,2022-3-28T02:48:52Z
2022-03-28T00:50:18Z,42.805,6.029,13.2998,4.60032,2470.32,2022-3-28T02:51:55Z
2022-03-28T00:53:21Z,42.805,6.029,13.3000,4.60031,2470.38,2022-3-28T02:54:58Z
2022-03-28T00:56:24Z,42.805,6.029,13.2998,4.60031,2470.357,2022-3-28T02:58:01Z
2022-03-28T00:59:28Z,42.805,6.029,13.3000,4.60031,2470.343,2022-3-28T03:01:04Z
2022-03-28T01:02:31Z,42.805,6.029,13.3000,4.60031,2470.32,2022-3-28T03:04:08Z
2022-03-28T01:05:34Z,42.805,6.029,13.3001,4.60033,2470.366,2022-3-28T03:07:11Z
2022-03-28T01:08:37Z,42.805,6.029,13.2998,4.60031,2470.334,2022-3-28T03:10:14Z
2022-03-28T01:11:40Z,42.805,6.029,13.2999,4.60031,2470.343,2022-3-28T03:13:17Z
2022-03-28T01:14:43Z,42.805,6.029,13.3000,4.60032,2470.413,2022-3-28T03:16:20Z
2022-03-28T01:17:46Z,42.805,6.029,13.2998,4.60031,2470.357,2022-3-28T03:19:23Z
2022-03-28T01:20:49Z,42.805,6.029,13.2999,4.60031,2470.343,2022-3-28T03:22:26Z
2022-03-28T01:23:53Z,42.805,6.029,13.3000,4.60031,2470.366,2022-3-28T03:25:29Z
2022-03-28T01:26:56Z,42.805,6.029,13.2998,4.60031,2470.343,2022-3-28T03:28:33Z
2022-03-28T01:29:59Z,42.805,6.029,13.2999,4.60031,2470.343,2022-3-28T03:31:36Z
2022-03-28T01:33:02Z,42.805,6.029,13.2999,4.60031,2470.357,2022-3-28T03:34:39Z
2022-03-28T01:36:05Z,42.805,6.029,13.2998,4.60031,2470.343,2022-3-28T03:37:42Z
2022-03-28T01:39:08Z,42.805,6.029,13.2997,4.60031,2470.366,2022-3-28T03:40:45Z
2022-03-28T01:42:11Z,42.805,6.029,13.2998,4.60031,2470.38,2022-3-28T03:43:48Z
2022-03-28T01:45:14Z,42.805,6.029,13.3000,4.60031,2470.39,2022-3-28T03:46:51Z
2022-03-28T01:48:18Z,42.805,6.029,13.2997,4.60031,2470.366,2022-3-28T03:49:54Z
2022-03-28T01:51:21Z,42.805,6.029,13.2999,4.60031,2470.38,2022-3-28T03:52:58Z
2022-03-28T01:54:24Z,42.805,6.029,13.2998,4.60031,2470.38,2022-3-28T03:56:01Z
2022-03-28T01:57:27Z,42.805,6.029,13.2999,4.60031,2470.366,2022-3-28T03:59:04Z
2022-03-28T02:00:30Z,42.805,6.029,13.3002,4.60033,2470.343,2022-3-28T04:02:07Z
2022-03-28T02:03:33Z,42.805,6.029,13.3000,4.60031,2470.39,2022-3-28T04:05:10Z
2022-03-28T02:06:36Z,42.805,6.029,13.2999,4.60031,2470.366,2022-3-28T04:08:13Z
2022-03-28T02:09:39Z,42.805,6.029,13.3001,4.60036,2470.366,2022-3-28T04:11:16Z
2022-03-28T02:12:42Z,42.805,6.029,13.2999,4.60033,2470.357,2022-3-28T04:14:19Z
2022-03-28T02:15:46Z,42.805,6.029,13.2996,4.60032,2470.39,2022-3-28T04:17:22Z
2022-03-28T02:18:49Z,42.805,6.029,13.3003,4.60031,2470.39,2022-3-28T04:20:26Z
2022-03-28T02:21:52Z,42.805,6.029,13.2999,4.60031,2470.39,2022-3-28T04:23:29Z
2022-03-28T02:24:55Z,42.805,6.029,13.3000,4.60031,2470.343,2022-3-28T04:26:32Z
2022-03-28T02:27:58Z,42.805,6.029,13.2998,4.60032,2470.39,2022-3-28T04:29:35Z
2022-03-28T02:31:01Z,42.805,6.029,13.3004,4.60031,2470.413,2022-3-28T04:32:38Z
2022-03-28T02:34:04Z,42.805,6.029,13.3000,4.60033,2470.413,2022-3-28T04:35:41Z
2022-03-28T02:37:07Z,42.805,6.029,13.2999,4.60031,2470.413,2022-3-28T04:38:44Z
2022-03-28T02:40:11Z,42.805,6.029,13.2995,4.60032,2470.413,2022-3-28T04:41:47Z
2022-03-28T02:43:14Z,42.805,6.029,13.2997,4.60031,2470.413,2022-3-28T04:44:51Z
2022-03-28T02:46:17Z,42.805,6.029,13.3002,4.60031,2470.437,2022-3-28T04:47:54Z
2022-03-28T02:49:20Z,42.805,6.029,13.3000,4.60031,2470.39,2022-3-28T04:50:57Z
2022-03-28T02:52:23Z,42.805,6.029,13.3005,4.60031,2470.404,2022-3-28T04:54:00Z
2022-03-28T02:55:26Z,42.805,6.029,13.2998,4.60031,2470.39,2022-3-28T04:57:03Z
2022-03-28T02:58:29Z,42.805,6.029,13.3000,4.60031,2470.366,2022-3-28T05:00:06Z
2022-03-28T03:01:32Z,42.805,6.029,13.3000,4.60031,2470.39,2022-3-28T05:03:09Z
2022-03-28T03:04:35Z,42.805,6.029,13.2998,4.60032,2470.39,2022-3-28T05:06:12Z
2022-03-28T03:07:39Z,42.805,6.029,13.3001,4.60032,2470.38,2022-3-28T05:09:16Z
2022-03-28T03:10:42Z,42.805,6.029,13.2998,4.60032,2470.404,2022-3-28T05:12:19Z
2022-03-28T03:13:45Z,42.805,6.029,13.3000,4.60032,2470.413,2022-3-28T05:15:22Z
2022-03-28T03:16:48Z,42.805,6.029,13.2997,4.60031,2470.39,2022-3-28T05:18:25Z
2022-03-28T03:19:51Z,42.805,6.029,13.2993,4.60032,2470.404,2022-3-28T05:21:28Z
2022-03-28T03:22:54Z,42.805,6.029,13.3000,4.60032,2470.413,2022-3-28T05:24:31Z
2022-03-28T03:25:57Z,42.805,6.029,13.2999,4.60032,2470.437,2022-3-28T05:27:34Z
2022-03-28T03:29:00Z,42.805,6.029,13.2999,4.60032,2470.413,2022-3-28T05:30:37Z
2022-03-28T03:32:04Z,42.805,6.029,13.2999,4.60031,2470.427,2022-3-28T05:33:41Z
2022-03-28T03:35:07Z,42.805,6.029,13.3000,4.60031,2470.437,2022-3-28T05:36:44Z
2022-03-28T03:38:10Z,42.805,6.029,13.2995,4.60033,2470.39,2022-3-28T05:39:47Z
2022-03-28T03:41:13Z,42.805,6.029,13.2998,4.60032,2470.427,2022-3-28T05:42:50Z
2022-03-28T03:44:16Z,42.805,6.029,13.2997,4.60031,2470.413,2022-3-28T05:45:53Z
2022-03-28T03:47:19Z,42.805,6.029,13.2997,4.60032,2470.45,2022-3-28T05:48:56Z
2022-03-28T03:50:22Z,42.805,6.029,13.3000,4.60031,2470.437,2022-3-28T05:51:59Z
2022-03-28T03:53:25Z,42.805,6.029,13.3001,4.60031,2470.413,2022-3-28T05:55:02Z
2022-03-28T03:56:29Z,42.805,6.029,13.2998,4.60031,2470.413,2022-3-28T05:58:05Z
2022-03-28T03:59:32Z,42.805,6.029,13.2998,4.60031,2470.413,2022-3-28T06:01:09Z
2022-03-28T04:02:35Z,42.805,6.029,13.2999,4.60031,2470.413,2022-3-28T06:04:12Z
2022-03-28T04:05:38Z,42.805,6.029,13.3000,4.60032,2470.437,2022-3-28T06:07:15Z
2022-03-28T04:08:41Z,42.805,6.029,13.3000,4.60032,2470.45,2022-3-28T06:10:18Z
2022-03-28T04:11:44Z,42.805,6.029,13.2996,4.60032,2470.437,2022-3-28T06:13:21Z
2022-03-28T04:14:47Z,42.805,6.029,13.2999,4.60032,2470.413,2022-3-28T06:16:24Z
2022-03-28T04:17:50Z,42.805,6.029,13.3004,4.60032,2470.45,2022-3-28T06:19:27Z
2022-03-28T04:20:54Z,42.805,6.029,13.3002,4.60031,2470.474,2022-3-28T06:22:30Z
2022-03-28T04:23:57Z,42.805,6.029,13.2995,4.60032,2470.46,2022-3-28T06:25:34Z
2022-03-28T04:27:00Z,42.805,6.029,13.2999,4.60031,2470.423,2022-3-28T06:28:37Z
2022-03-28T04:30:03Z,42.805,6.029,13.3000,4.60032,2470.474,2022-3-28T06:31:40Z
2022-03-28T04:33:06Z,42.805,6.029,13.2998,4.60031,2470.413,2022-3-28T06:34:43Z
2022-03-28T04:36:09Z,42.805,6.029,13.2997,4.60033,2470.437,2022-3-28T06:37:46Z
2022-03-28T04:39:12Z,42.805,6.029,13.3002,4.60032,2470.437,2022-3-28T06:40:49Z
2022-03-28T04:42:15Z,42.805,6.029,13.3005,4.60032,2470.413,2022-3-28T06:43:52Z
2022-03-28T04:45:19Z,42.805,6.029,13.3000,4.60031,2470.413,2022-3-28T06:46:55Z
2022-03-28T04:48:22Z,42.805,6.029,13.3000,4.60032,2470.437,2022-3-28T06:49:59Z
2022-03-28T04:51:25Z,42.805,6.029,13.2998,4.60031,2470.46,2022-3-28T06:53:02Z
2022-03-28T04:54:28Z,42.805,6.029,13.3000,4.60031,2470.437,2022-3-28T06:56:05Z
2022-03-28T04:57:31Z,42.805,6.029,13.3001,4.60031,2470.413,2022-3-28T06:59:08Z
2022-03-28T05:00:34Z,42.805,6.029,13.3000,4.60032,2470.413,2022-3-28T07:02:11Z
2022-03-28T05:03:37Z,42.805,6.029,13.2998,4.60031,2470.413,2022-3-28T07:05:14Z
2022-03-28T05:06:40Z,42.805,6.029,13.2997,4.60033,2470.437,2022-3-28T07:08:17Z
2022-03-28T05:09:43Z,42.805,6.029,13.3005,4.60032,2470.413,2022-3-28T07:11:20Z
2022-03-28T05:12:47Z,42.805,6.029,13.3004,4.60032,2470.437,2022-3-28T07:14:24Z
2022-03-28T05:15:50Z,42.805,6.029,13.3004,4.60031,2470.413,2022-3-28T07:17:27Z
2022-03-28T05:18:53Z,42.805,6.029,13.3001,4.60032,2470.413,2022-3-28T07:20:30Z
2022-03-28T05:21:56Z,42.805,6.029,13.2998,4.60033,2470.437,2022-3-28T07:23:33Z
2022-03-28T05:24:59Z,42.805,6.029,13.2998,4.60031,2470.437,2022-3-28T07:26:36Z
2022-03-28T05:28:02Z,42.805,6.029,13.2998,4.60032,2470.437,2022-3-28T07:29:39Z
2022-03-28T05:31:05Z,42.805,6.029,13.3000,4.60033,2470.437,2022-3-28T07:32:42Z
2022-03-28T05:34:08Z,42.805,6.029,13.3003,4.60031,2470.413,2022-3-28T07:35:45Z
2022-03-28T05:37:12Z,42.805,6.029,13.3003,4.60032,2470.474,2022-3-28T07:38:49Z
2022-03-28T05:40:15Z,42.805,6.029,13.3000,4.60032,2470.437,2022-3-28T07:41:52Z
2022-03-28T05:43:18Z,42.805,6.029,13.2998,4.60032,2470.437,2022-3-28T07:44:55Z
2022-03-28T05:46:21Z,42.805,6.029,13.3000,4.60032,2470.427,2022-3-28T07:47:58Z
2022-03-28T05:49:24Z,42.805,6.029,13.3004,4.60032,2470.474,2022-3-28T07:51:01Z
2022-03-28T05:52:27Z,42.805,6.029,13.3000,4.60031,2470.46,2022-3-28T07:54:04Z
2022-03-28T05:55:30Z,42.805,6.029,13.2997,4.60032,2470.437,2022-3-28T07:57:07Z
2022-03-28T05:58:33Z,42.805,6.029,13.3006,4.60033,2470.413,2022-3-28T08:00:10Z
2022-03-28T06:01:37Z,42.805,6.029,13.3002,4.60034,2470.45,2022-3-28T08:03:13Z
2022-03-28T06:04:40Z,42.805,6.029,13.3000,4.60033,2470.39,2022-3-28T08:06:17Z
2022-03-28T06:07:43Z,42.805,6.029,13.3002,4.60033,2470.427,2022-3-28T08:09:20Z
2022-03-28T06:10:46Z,42.805,6.029,13.2996,4.60033,2470.437,2022-3-28T08:12:23Z
2022-03-28T06:13:49Z,42.805,6.029,13.2998,4.60033,2470.437,2022-3-28T08:15:26Z
2022-03-28T06:16:52Z,42.805,6.029,13.3001,4.60033,2470.437,2022-3-28T08:18:29Z
2022-03-28T06:19:55Z,42.805,6.029,13.2998,4.60033,2470.427,2022-3-28T08:21:32Z
2022-03-28T06:22:58Z,42.805,6.029,13.3005,4.60033,2470.45,2022-3-28T08:24:35Z
2022-03-28T06:26:02Z,42.805,6.029,13.3000,4.60033,2470.413,2022-3-28T08:27:38Z
2022-03-28T06:29:05Z,42.805,6.029,13.3005,4.60033,2470.413,2022-3-28T08:30:42Z
2022-03-28T06:32:08Z,42.805,6.029,13.3003,4.60033,2470.45,2022-3-28T08:33:45Z
2022-03-28T06:35:11Z,42.805,6.029,13.3002,4.60034,2470.437,2022-3-28T08:36:48Z
2022-03-28T06:38:14Z,42.805,6.029,13.3000,4.60034,2470.46,2022-3-28T08:39:51Z
2022-03-28T06:41:17Z,42.805,6.029,13.3004,4.60034,2470.413,2022-3-28T08:42:54Z
2022-03-28T06:44:20Z,42.805,6.029,13.3000,4.60034,2470.39,2022-3-28T08:45:57Z
2022-03-28T06:47:23Z,42.805,6.029,13.3005,4.60036,2470.413,2022-3-28T08:49:00Z
2022-03-28T06:50:27Z,42.805,6.029,13.3005,4.60037,2470.427,2022-3-28T08:52:03Z
2022-03-28T06:53:30Z,42.805,6.029,13.3005,4.60035,2470.413,2022-3-28T08:55:07Z
2022-03-28T06:56:33Z,42.805,6.029,13.3004,4.60034,2470.427,2022-3-28T08:58:10Z
2022-03-28T06:59:36Z,42.805,6.029,13.3002,4.60035,2470.427,2022-3-28T09:01:13Z
2022-03-28T07:02:39Z,42.805,6.029,13.3004,4.60035,2470.39,2022-3-28T09:04:16Z
2022-03-28T07:05:42Z,42.805,6.029,13.3009,4.60036,2470.437,2022-3-28T09:07:19Z
2022-03-28T07:08:45Z,42.805,6.029,13.3006,4.60038,2470.39,2022-3-28T09:10:22Z
2022-03-28T07:11:48Z,42.805,6.029,13.3006,4.60036,2470.427,2022-3-28T09:13:25Z
2022-03-28T07:14:51Z,42.805,6.029,13.3006,4.60036,2470.39,2022-3-28T09:16:28Z
2022-03-28T07:17:55Z,42.805,6.029,13.3005,4.60039,2470.39,2022-3-28T09:19:32Z
2022-03-28T07:20:58Z,42.805,6.029,13.3007,4.60037,2470.39,2022-3-28T09:22:35Z
2022-03-28T07:24:01Z,42.805,6.029,13.3004,4.60037,2470.366,2022-3-28T09:25:38Z
2022-03-28T07:27:04Z,42.805,6.029,13.3005,4.60039,2470.39,2022-3-28T09:28:41Z
2022-03-28T07:30:07Z,42.805,6.029,13.3006,4.60036,2470.39,2022-3-28T09:31:44Z
2022-03-28T07:33:10Z,42.805,6.029,13.3006,4.60036,2470.366,2022-3-28T09:34:47Z
2022-03-28T07:36:13Z,42.805,6.029,13.3005,4.60037,2470.366,2022-3-28T09:37:50Z
2022-03-28T07:39:16Z,42.805,6.029,13.3008,4.60039,2470.404,2022-3-28T09:40:53Z
2022-03-28T07:42:20Z,42.805,6.029,13.3009,4.60039,2470.404,2022-3-28T09:43:57Z
2022-03-28T07:45:23Z,42.805,6.029,13.3006,4.60039,2470.343,2022-3-28T09:47:00Z
2022-03-28T07:48:26Z,42.805,6.029,13.3007,4.60039,2470.38,2022-3-28T09:50:03Z
2022-03-28T07:51:29Z,42.805,6.029,13.3006,4.60039,2470.38,2022-3-28T09:53:06Z
2022-03-28T07:54:32Z,42.805,6.029,13.3007,4.60038,2470.38,2022-3-28T09:56:09Z
2022-03-28T07:57:35Z,42.805,6.029,13.3006,4.60039,2470.366,2022-3-28T09:59:12Z
2022-03-28T08:00:38Z,42.805,6.029,13.3006,4.60039,2470.366,2022-3-28T10:02:15Z
2022-03-28T08:03:41Z,42.805,6.029,13.3006,4.60040,2470.404,2022-3-28T10:05:18Z
2022-03-28T08:06:45Z,42.805,6.029,13.3009,4.60039,2470.366,2022-3-28T10:08:21Z
2022-03-28T08:09:48Z,42.805,6.029,13.3006,4.60039,2470.366,2022-3-28T10:11:25Z
2022-03-28T08:12:51Z,42.805,6.029,13.3004,4.60039,2470.366,2022-3-28T10:14:28Z
2022-03-28T08:15:54Z,42.805,6.029,13.3009,4.60041,2470.357,2022-3-28T10:17:31Z
2022-03-28T08:18:57Z,42.805,6.029,13.3009,4.60040,2470.343,2022-3-28T10:20:34Z
2022-03-28T08:22:00Z,42.805,6.029,13.3005,4.60042,2470.38,2022-3-28T10:23:37Z
2022-03-28T08:25:03Z,42.805,6.029,13.3008,4.60041,2470.32,2022-3-28T10:26:40Z
2022-03-28T08:28:06Z,42.805,6.029,13.3010,4.60040,2470.32,2022-3-28T10:29:43Z
2022-03-28T08:31:10Z,42.805,6.029,13.3007,4.60041,2470.357,2022-3-28T10:32:47Z
2022-03-28T08:34:13Z,42.805,6.029,13.3006,4.60042,2470.297,2022-3-28T10:35:50Z
2022-03-28T08:37:16Z,42.805,6.029,13.3009,4.60042,2470.343,2022-3-28T10:38:53Z
2022-03-28T08:40:19Z,42.805,6.029,13.3010,4.60043,2470.32,2022-3-28T10:41:56Z
2022-03-28T08:43:22Z,42.805,6.029,13.3005,4.60042,2470.334,2022-3-28T10:44:59Z
2022-03-28T08:46:25Z,42.805,6.029,13.3010,4.60042,2470.357,2022-3-28T10:48:02Z
2022-03-28T08:49:28Z,42.805,6.029,13.3010,4.60042,2470.343,2022-3-28T10:51:05Z
2022-03-28T08:52:31Z,42.805,6.029,13.3011,4.60042,2470.343,2022-3-28T10:54:08Z
2022-03-28T08:55:35Z,42.805,6.029,13.3006,4.60042,2470.343,2022-3-28T10:57:12Z
2022-03-28T08:58:38Z,42.805,6.029,13.3011,4.60042,2470.334,2022-3-28T11:00:15Z
2022-03-28T09:01:41Z,42.805,6.029,13.3011,4.60042,2470.31,2022-3-28T11:03:18Z
2022-03-28T09:04:44Z,42.805,6.029,13.3007,4.60043,2470.334,2022-3-28T11:06:21Z
2022-03-28T09:07:47Z,42.805,6.029,13.3009,4.60043,2470.334,2022-3-28T11:09:24Z
2022-03-28T09:10:50Z,42.805,6.029,13.3010,4.60044,2470.32,2022-3-28T11:12:27Z
2022-03-28T09:13:53Z,42.805,6.029,13.3011,4.60043,2470.32,2022-3-28T11:15:30Z
2022-03-28T09:16:56Z,42.805,6.029,13.3010,4.60043,2470.31,2022-3-28T11:18:33Z
2022-03-28T09:20:00Z,42.805,6.029,13.3014,4.60043,2470.31,2022-3-28T11:21:37Z
2022-03-28T09:23:03Z,42.805,6.029,13.3012,4.60043,2470.297,2022-3-28T11:24:40Z
2022-03-28T09:26:06Z,42.805,6.029,13.3012,4.60044,2470.334,2022-3-28T11:27:43Z
2022-03-28T09:29:09Z,42.805,6.029,13.3006,4.60044,2470.297,2022-3-28T11:30:46Z
2022-03-28T09:32:12Z,42.805,6.029,13.3012,4.60045,2470.227,2022-3-28T11:33:49Z
2022-03-28T09:35:15Z,42.805,6.029,13.3013,4.60045,2470.297,2022-3-28T11:36:52Z
2022-03-28T09:38:18Z,42.805,6.029,13.3015,4.60046,2470.297,2022-3-28T11:39:55Z
2022-03-28T09:41:21Z,42.805,6.029,13.3014,4.60046,2470.273,2022-3-28T11:42:58Z
2022-03-28T09:44:25Z,42.805,6.029,13.3015,4.60046,2470.287,2022-3-28T11:46:02Z
2022-03-28T09:47:28Z,42.805,6.029,13.3012,4.60046,2470.297,2022-3-28T11:49:05Z
2022-03-28T09:50:31Z,42.805,6.029,13.3014,4.60046,2470.287,2022-3-28T11:52:08Z
2022-03-28T09:53:34Z,42.805,6.029,13.3018,4.60048,2470.273,2022-3-28T11:55:11Z
2022-03-28T09:56:37Z,42.805,6.029,13.3015,4.60050,2470.287,2022-3-28T11:58:14Z
2022-03-28T09:59:40Z,42.805,6.029,13.3015,4.60048,2470.287,2022-3-28T12:01:17Z
2022-03-28T10:02:43Z,42.805,6.029,13.3018,4.60049,2470.287,2022-3-28T12:04:20Z
2022-03-28T10:05:46Z,42.805,6.029,13.3015,4.60049,2470.25,2022-3-28T12:07:23Z
2022-03-28T10:08:50Z,42.805,6.029,13.3014,4.60049,2470.264,2022-3-28T12:10:27Z
2022-03-28T10:11:53Z,42.805,6.029,13.3020,4.60049,2470.273,2022-3-28T12:13:30Z
2022-03-28T10:14:56Z,42.805,6.029,13.3017,4.60051,2470.25,2022-3-28T12:16:33Z
2022-03-28T10:17:59Z,42.805,6.029,13.3019,4.60053,2470.25,2022-3-28T12:19:36Z
2022-03-28T10:21:02Z,42.805,6.029,13.3021,4.60054,2470.227,2022-3-28T12:22:39Z
2022-03-28T10:24:05Z,42.805,6.029,13.3021,4.60055,2470.264,2022-3-28T12:25:42Z
2022-03-28T10:27:08Z,42.805,6.029,13.3018,4.60055,2470.273,2022-3-28T12:28:45Z
2022-03-28T10:30:11Z,42.805,6.029,13.3021,4.60057,2470.24,2022-3-28T12:31:48Z
2022-03-28T10:33:15Z,42.805,6.029,13.3022,4.60057,2470.273,2022-3-28T12:34:52Z
2022-03-28T10:36:18Z,42.805,6.029,13.3020,4.60055,2470.25,2022-3-28T12:37:55Z
2022-03-28T10:39:21Z,42.805,6.029,13.3021,4.60056,2470.25,2022-3-28T12:40:58Z
2022-03-28T10:42:24Z,42.805,6.029,13.3019,4.60056,2470.273,2022-3-28T12:44:01Z
2022-03-28T10:45:27Z,42.805,6.029,13.3019,4.60056,2470.264,2022-3-28T12:47:04Z
2022-03-28T10:48:30Z,42.805,6.029,13.3024,4.60060,2470.25,2022-3-28T12:50:07Z
2022-03-28T10:51:33Z,42.805,6.029,13.3021,4.60057,2470.264,2022-3-28T12:53:10Z
2022-03-28T10:54:36Z,42.805,6.029,13.3021,4.60057,2470.24,2022-3-28T12:56:13Z
2022-03-28T10:57:40Z,42.805,6.029,13.3021,4.60057,2470.227,2022-3-28T12:59:17Z
2022-03-28T11:00:43Z,42.805,6.029,13.3020,4.60056,2470.264,2022-3-28T13:02:20Z
2022-03-28T11:03:46Z,42.805,6.029,13.3024,4.60057,2470.217,2022-3-28T13:05:23Z
2022-03-28T11:06:49Z,42.805,6.029,13.3023,4.60058,2470.203,2022-3-28T13:08:26Z
2022-03-28T11:09:52Z,42.805,6.029,13.3022,4.60060,2470.287,2022-3-28T13:11:29Z
2022-03-28T11:12:55Z,42.805,6.029,13.3024,4.60057,2470.227,2022-3-28T13:14:32Z
2022-03-28T11:15:58Z,42.805,6.029,13.3023,4.60058,2470.24,2022-3-28T13:17:35Z
2022-03-28T11:19:02Z,42.805,6.029,13.3024,4.60057,2470.227,2022-3-28T13:20:38Z
2022-03-28T11:22:05Z,42.805,6.029,13.3023,4.60057,2470.264,2022-3-28T13:23:42Z
2022-03-28T11:25:08Z,42.805,6.029,13.3028,4.60058,2470.264,2022-3-28T13:26:45Z
2022-03-28T11:28:11Z,42.805,6.029,13.3022,4.60057,2470.203,2022-3-28T13:29:48Z
2022-03-28T11:31:14Z,42.805,6.029,13.3026,4.60059,2470.217,2022-3-28T13:32:51Z
2022-03-28T11:34:17Z,42.805,6.029,13.3024,4.60058,2470.227,2022-3-28T13:35:54Z
2022-03-28T11:37:20Z,42.805,6.029,13.3025,4.60057,2470.25,2022-3-28T13:38:57Z
2022-03-28T11:40:23Z,42.805,6.029,13.3021,4.60057,2470.227,2022-3-28T13:42:00Z
2022-03-28T11:43:27Z,42.805,6.029,13.3022,4.60057,2470.24,2022-3-28T13:45:03Z
2022-03-28T11:46:30Z,42.805,6.029,13.3023,4.60057,2470.203,2022-3-28T13:48:07Z
2022-03-28T11:49:33Z,42.805,6.029,13.3025,4.60057,2470.227,2022-3-28T13:51:10Z
2022-03-28T11:52:36Z,42.805,6.029,13.3023,4.60057,2470.227,2022-3-28T13:54:13Z
2022-03-28T11:55:39Z,42.805,6.029,13.3027,4.60060,2470.24,2022-3-28T13:57:16Z
2022-03-28T11:58:42Z,42.805,6.029,13.3026,4.60057,2470.203,2022-3-28T14:00:19Z
2022-03-28T12:01:45Z,42.805,6.029,13.3023,4.60059,2470.24,2022-3-28T14:03:22Z
2022-03-28T12:04:48Z,42.805,6.029,13.3026,4.60057,2470.227,2022-3-28T14:06:25Z
2022-03-28T12:07:52Z,42.805,6.029,13.3025,4.60057,2470.24,2022-3-28T14:09:28Z
2022-03-28T12:10:55Z,42.805,6.029,13.3024,4.60057,2470.217,2022-3-28T14:12:32Z
2022-03-28T12:13:58Z,42.805,6.029,13.3022,4.60058,2470.18,2022-3-28T14:15:35Z
2022-03-28T12:17:01Z,42.805,6.029,13.3019,4.60056,2470.217,2022-3-28T14:18:38Z
2022-03-28T12:20:04Z,42.805,6.029,13.3020,4.60058,2470.25,2022-3-28T14:21:41Z
2022-03-28T12:23:07Z,42.805,6.029,13.3022,4.60057,2470.264,2022-3-28T14:24:44Z
2022-03-28T12:26:10Z,42.805,6.029,13.3022,4.60056,2470.217,2022-3-28T14:27:47Z
2022-03-28T12:29:13Z,42.805,6.029,13.3024,4.60057,2470.18,2022-3-28T14:30:50Z
2022-03-28T12:32:17Z,42.805,6.029,13.3024,4.60055,2470.203,2022-3-28T14:33:53Z
2022-03-28T12:35:20Z,42.805,6.029,13.3022,4.60056,2470.203,2022-3-28T14:36:57Z
2022-03-28T12:38:23Z,42.805,6.029,13.3023,4.60058,2470.227,2022-3-28T14:40:00Z
2022-03-28T12:41:26Z,42.805,6.029,13.3024,4.60057,2470.25,2022-3-28T14:43:03Z
2022-03-28T12:44:29Z,42.805,6.029,13.3020,4.60056,2470.217,2022-3-28T14:46:06Z
2022-03-28T12:47:32Z,42.805,6.029,13.3018,4.60057,2470.227,2022-3-28T14:49:09Z
2022-03-28T12:50:35Z,42.805,6.029,13.3024,4.60056,2470.203,2022-3-28T14:52:12Z
2022-03-28T12:53:38Z,42.805,6.029,13.3022,4.60057,2470.203,2022-3-28T14:55:15Z
2022-03-28T12:56:42Z,42.805,6.029,13.3022,4.60055,2470.217,2022-3-28T14:58:18Z
2022-03-28T12:59:45Z,42.805,6.029,13.3018,4.60055,2470.24,2022-3-28T15:01:22Z
2022-03-28T13:02:48Z,42.805,6.029,13.3021,4.60055,2470.217,2022-3-28T15:04:25Z
2022-03-28T13:05:51Z,42.805,6.029,13.3019,4.60057,2470.203,2022-3-28T15:07:28Z
2022-03-28T13:08:54Z,42.805,6.029,13.3021,4.60055,2470.25,2022-3-28T15:10:31Z
2022-03-28T13:11:57Z,42.805,6.029,13.3022,4.60056,2470.227,2022-3-28T15:13:34Z
2022-03-28T13:15:00Z,42.805,6.029,13.3017,4.60054,2470.227,2022-3-28T15:16:37Z
2022-03-28T13:18:03Z,42.805,6.029,13.3021,4.60054,2470.203,2022-3-28T15:19:40Z
2022-03-28T13:21:07Z,42.805,6.029,13.3021,4.60054,2470.25,2022-3-28T15:22:43Z
2022-03-28T13:24:10Z,42.805,6.029,13.3016,4.60053,2470.203,2022-3-28T15:25:47Z
2022-03-28T13:27:13Z,42.805,6.029,13.3019,4.60054,2470.24,2022-3-28T15:28:50Z
2022-03-28T13:30:16Z,42.805,6.029,13.3020,4.60052,2470.203,2022-3-28T15:31:53Z
2022-03-28T13:33:19Z,42.805,6.029,13.3021,4.60053,2470.227,2022-3-28T15:34:56Z
2022-03-28T13:36:22Z,42.805,6.029,13.3018,4.60052,2470.217,2022-3-28T15:37:59Z
2022-03-28T13:39:25Z,42.805,6.029,13.3023,4.60053,2470.203,2022-3-28T15:41:02Z
2022-03-28T13:42:28Z,42.805,6.029,13.3020,4.60054,2470.227,2022-3-28T15:44:05Z
2022-03-28T13:45:32Z,42.805,6.029,13.3015,4.60054,2470.24,2022-3-28T15:47:08Z
2022-03-28T13:48:35Z,42.805,6.029,13.3017,4.60053,2470.227,2022-3-28T15:50:12Z
2022-03-28T13:51:38Z,42.805,6.029,13.3018,4.60053,2470.227,2022-3-28T15:53:15Z
2022-03-28T13:54:41Z,42.805,6.029,13.3018,4.60053,2470.25,2022-3-28T15:56:18Z
2022-03-28T13:57:44Z,42.805,6.029,13.3019,4.60052,2470.24,2022-3-28T15:59:21Z
2022-03-28T14:00:47Z,42.805,6.029,13.3018,4.60053,2470.24,2022-3-28T16:02:24Z
2022-03-28T14:03:50Z,42.805,6.029,13.3019,4.60054,2470.25,2022-3-28T16:05:27Z
2022-03-28T14:06:53Z,42.805,6.029,13.3018,4.60052,2470.227,2022-3-28T16:08:30Z
2022-03-28T14:09:57Z,42.805,6.029,13.3018,4.60052,2470.227,2022-3-28T16:11:33Z
2022-03-28T14:13:00Z,42.805,6.029,13.3019,4.60053,2470.227,2022-3-28T16:14:37Z
2022-03-28T14:16:03Z,42.805,6.029,13.3020,4.60052,2470.24,2022-3-28T16:17:40Z
2022-03-28T14:19:06Z,42.805,6.029,13.3021,4.60052,2470.24,2022-3-28T16:20:43Z
2022-03-28T14:22:09Z,42.805,6.029,13.3014,4.60052,2470.227,2022-3-28T16:23:46Z
2022-03-28T14:25:12Z,42.805,6.029,13.3015,4.60052,2470.24,2022-3-28T16:26:49Z
2022-03-28T14:28:15Z,42.805,6.029,13.3020,4.60051,2470.25,2022-3-28T16:29:52Z
2022-03-28T14:31:18Z,42.805,6.029,13.3017,4.60052,2470.227,2022-3-28T16:32:55Z
2022-03-28T14:34:22Z,42.805,6.029,13.3016,4.60051,2470.25,2022-3-28T16:35:59Z
2022-03-28T14:37:25Z,42.805,6.029,13.3016,4.60051,2470.264,2022-3-28T16:39:02Z
2022-03-28T14:40:28Z,42.805,6.029,13.3019,4.60051,2470.25,2022-3-28T16:42:05Z
2022-03-28T14:43:31Z,42.805,6.029,13.3020,4.60051,2470.297,2022-3-28T16:45:08Z
2022-03-28T14:46:34Z,42.805,6.029,13.3017,4.60051,2470.25,2022-3-28T16:48:11Z
2022-03-28T14:49:37Z,42.805,6.029,13.3019,4.60051,2470.264,2022-3-28T16:51:14Z
2022-03-28T14:52:40Z,42.805,6.029,13.3019,4.60051,2470.25,2022-3-28T16:54:17Z
2022-03-28T14:55:43Z,42.805,6.029,13.3021,4.60051,2470.264,2022-3-28T16:57:20Z
2022-03-28T14:58:47Z,42.805,6.029,13.3017,4.60051,2470.264,2022-3-28T17:00:23Z
2022-03-28T15:01:50Z,42.805,6.029,13.3015,4.60051,2470.25,2022-3-28T17:03:27Z
2022-03-28T15:04:53Z,42.805,6.029,13.3019,4.60051,2470.25,2022-3-28T17:06:30Z
2022-03-28T15:07:56Z,42.805,6.029,13.3016,4.60051,2470.24,2022-3-28T17:09:33Z
2022-03-28T15:10:59Z,42.805,6.029,13.3021,4.60052,2470.25,2022-3-28T17:12:36Z
2022-03-28T15:14:02Z,42.805,6.029,13.3019,4.60051,2470.273,2022-3-28T17:15:39Z